Location: Newark
(50.1395°N, 5.5234°W)
Time: 01:25:16
(UTC+00:00)

ISS - Pass Details

Date: 09 March 2021
Orbit: 418 x 422 km, 51.6° (Epoch: 11 April)

Event Time Altitude Azimuth Distance (km) Brightness Sun altitude
Exits shadow 03:57:52 19° 95° (E) 1,086 -1.1 -27.3°
Drops below altitude 10° 03:58:54 10° 97° (E) 1,498 -0.3 -27.2°
Sets 04:01:00 0° 99° (E) 2,361 0.8 -26.9°
